Hourly Weather Otrada

Today, 23 July, Friday

Time Temperature Precipitation Wind Pressure Humidity
00:00 +13°C° 0 mm 3 mps 740 mmHg 61%
01:00 +12°C° 0 mm 3 mps 740 mmHg 63%
02:00 +13°C° 0 mm 2 mps 740 mmHg 65%
03:00 +12°C° 0 mm 2 mps 740 mmHg 66%
04:00 +13°C° 0 mm 2 mps 740 mmHg 66%
05:00 +13°C° 0 mm 2 mps 740 mmHg 67%
06:00 +13°C° 0 mm 2 mps 740 mmHg 67%
07:00 +16°C° 0 mm 3 mps 740 mmHg 60%
08:00 +18°C° 0 mm 3 mps 739 mmHg 54%
09:00 +20°C° 0 mm 4 mps 739 mmHg 48%
10:00 +21°C° 0 mm 4 mps 739 mmHg 46%
11:00 +22°C° 0 mm 5 mps 739 mmHg 43%
12:00 +23°C° 0 mm 5 mps 739 mmHg 41%
13:00 +23°C° 0 mm 5 mps 738 mmHg 41%
14:00 +25°C° 0 mm 5 mps 738 mmHg 40%
15:00 +24°C° 0 mm 6 mps 738 mmHg 39%
16:00 +23°C° 0 mm 5 mps 738 mmHg 43%
17:00 +22°C° 0 mm 5 mps 738 mmHg 47%
18:00 +21°C° 0 mm 4 mps 738 mmHg 51%
19:00 +20°C° 0 mm 4 mps 738 mmHg 56%
20:00 +19°C° 0 mm 3 mps 738 mmHg 62%
21:00 +18°C° 0 mm 3 mps 738 mmHg 67%
22:00 +17°C° 0 mm 3 mps 739 mmHg 69%
23:00 +16°C° 0 mm 3 mps 739 mmHg 72%

Tomorrow, 24 July, Saturday

Time Temperature Precipitation Wind Pressure Humidity
00:00 +14°C° 0 mm 3 mps 739 mmHg 75%
01:00 +14°C° 0 mm 3 mps 739 mmHg 76%
02:00 +13°C° 0 mm 3 mps 739 mmHg 78%
03:00 +13°C° 0 mm 3 mps 740 mmHg 79%
04:00 +14°C° 0 mm 2 mps 740 mmHg 79%
05:00 +14°C° 0 mm 2 mps 740 mmHg 79%
06:00 +14°C° 0 mm 2 mps 741 mmHg 79%
07:00 +16°C° 0 mm 3 mps 741 mmHg 69%
08:00 +18°C° 0 mm 3 mps 741 mmHg 58%
09:00 +20°C° 0 mm 4 mps 741 mmHg 48%
10:00 +20°C° 0 mm 4 mps 742 mmHg 46%
11:00 +21°C° 0 mm 4 mps 742 mmHg 43%
12:00 +22°C° 0 mm 4 mps 742 mmHg 40%
13:00 +21°C° 0 mm 4 mps 742 mmHg 40%
14:00 +21°C° 0 mm 4 mps 743 mmHg 41%
15:00 +21°C° 0 mm 4 mps 743 mmHg 41%
16:00 +21°C° 0 mm 3 mps 743 mmHg 41%
17:00 +21°C° 0 mm 3 mps 743 mmHg 42%
18:00 +21°C° 0 mm 3 mps 744 mmHg 42%
19:00 +20°C° 0 mm 2 mps 744 mmHg 47%
20:00 +18°C° 0 mm 2 mps 745 mmHg 51%
21:00 +17°C° 0 mm 2 mps 745 mmHg 56%
22:00 +17°C° 0 mm 2 mps 745 mmHg 57%
23:00 +16°C° 0 mm 1 mps 746 mmHg 58%

Day after tomorrow, 25 July, Sunday

Time Temperature Precipitation Wind Pressure Humidity
00:00 +16°C° 0 mm 1 mps 746 mmHg 59%
01:00 +16°C° 0 mm 1 mps 746 mmHg 58%
02:00 +16°C° 0 mm 1 mps 746 mmHg 58%
03:00 +16°C° 0 mm 1 mps 746 mmHg 57%
04:00 +16°C° 0 mm 1 mps 747 mmHg 58%
05:00 +16°C° 0 mm 1 mps 747 mmHg 59%
06:00 +16°C° 0 mm 1 mps 747 mmHg 59%
07:00 +16°C° 0 mm 0 mps 748 mmHg 57%
08:00 +17°C° 0 mm 0 mps 748 mmHg 54%
09:00 +18°C° 0 mm 0 mps 748 mmHg 51%
10:00 +21°C° 0 mm 1 mps 748 mmHg 46%
11:00 +23°C° 0 mm 1 mps 748 mmHg 41%
12:00 +24°C° 0 mm 1 mps 748 mmHg 36%
13:00 +24°C° 0 mm 2 mps 748 mmHg 35%
14:00 +25°C° 0 mm 2 mps 748 mmHg 33%
15:00 +25°C° 0 mm 2 mps 748 mmHg 32%
16:00 +25°C° 0 mm 2 mps 748 mmHg 33%
17:00 +25°C° 0 mm 3 mps 749 mmHg 33%
18:00 +25°C° 0 mm 3 mps 749 mmHg 34%
19:00 +23°C° 0 mm 2 mps 749 mmHg 39%
20:00 +20°C° 0 mm 2 mps 749 mmHg 44%
21:00 +19°C° 0 mm 1 mps 749 mmHg 50%
22:00 +18°C° 0 mm 2 mps 749 mmHg 50%
23:00 +17°C° 0 mm 2 mps 750 mmHg 51%

26 July, Monday

Time Temperature Precipitation Wind Pressure Humidity
00:00 +17°C° 0 mm 2 mps 750 mmHg 51%
01:00 +17°C° 0 mm 2 mps 750 mmHg 52%
02:00 +17°C° 0 mm 2 mps 750 mmHg 52%
03:00 +17°C° 0 mm 2 mps 750 mmHg 52%
04:00 +18°C° 0 mm 1 mps 750 mmHg 53%
05:00 +18°C° 0 mm 1 mps 750 mmHg 53%
06:00 +19°C° 0 mm 1 mps 751 mmHg 53%
07:00 +20°C° 0 mm 1 mps 751 mmHg 50%
08:00 +21°C° 0 mm 1 mps 751 mmHg 46%
09:00 +22°C° 0 mm 1 mps 751 mmHg 43%
10:00 +24°C° 0 mm 1 mps 751 mmHg 40%
11:00 +25°C° 0 mm 1 mps 751 mmHg 36%
12:00 +26°C° 0 mm 1 mps 751 mmHg 33%
13:00 +27°C° 0 mm 2 mps 751 mmHg 32%
14:00 +27°C° 0 mm 2 mps 751 mmHg 30%
15:00 +28°C° 0 mm 2 mps 750 mmHg 29%
16:00 +27°C° 0 mm 2 mps 750 mmHg 31%
17:00 +27°C° 0 mm 2 mps 750 mmHg 33%
18:00 +26°C° 0 mm 2 mps 750 mmHg 35%
19:00 +25°C° 0 mm 2 mps 750 mmHg 39%
20:00 +23°C° 0 mm 2 mps 750 mmHg 44%
21:00 +21°C° 0 mm 1 mps 750 mmHg 48%
22:00 +20°C° 0 mm 1 mps 750 mmHg 50%
23:00 +20°C° 0 mm 1 mps 750 mmHg 52%

27 July, Tuesday

Time Temperature Precipitation Wind Pressure Humidity
00:00 +19°C° 0 mm 1 mps 750 mmHg 53%
01:00 +19°C° 0 mm 1 mps 750 mmHg 54%
02:00 +16°C° 0 mm 0 mps 750 mmHg 55%
03:00 +16°C° 0 mm 0 mps 750 mmHg 56%
04:00 +16°C° 0 mm 0 mps 750 mmHg 57%
05:00 +19°C° 0 mm 1 mps 750 mmHg 57%
06:00 +19°C° 0 mm 1 mps 751 mmHg 58%
07:00 +21°C° 0 mm 1 mps 751 mmHg 52%
08:00 +23°C° 0 mm 1 mps 751 mmHg 46%
09:00 +26°C° 0 mm 1 mps 751 mmHg 40%
10:00 +27°C° 0 mm 1 mps 750 mmHg 36%
11:00 +28°C° 0 mm 1 mps 750 mmHg 33%
12:00 +29°C° 0 mm 1 mps 750 mmHg 29%
13:00 +29°C° 0 mm 1 mps 750 mmHg 29%
14:00 +30°C° 0 mm 1 mps 749 mmHg 28%
15:00 +30°C° 0 mm 1 mps 749 mmHg 27%
16:00 +29°C° 0 mm 1 mps 749 mmHg 28%
17:00 +29°C° 0 mm 2 mps 749 mmHg 30%
18:00 +29°C° 0 mm 2 mps 748 mmHg 31%
19:00 +27°C° 0 mm 2 mps 748 mmHg 35%
20:00 +25°C° 0 mm 1 mps 748 mmHg 39%
21:00 +24°C° 0 mm 1 mps 748 mmHg 43%
22:00 +23°C° 0 mm 1 mps 748 mmHg 44%
23:00 +23°C° 0 mm 1 mps 748 mmHg 45%

28 July, Wednesday

Time Temperature Precipitation Wind Pressure Humidity
00:00 +22°C° 0 mm 1 mps 748 mmHg 46%
01:00 +22°C° 0 mm 1 mps 748 mmHg 47%
02:00 +21°C° 0 mm 1 mps 748 mmHg 48%
03:00 +21°C° 0 mm 1 mps 748 mmHg 49%
04:00 +21°C° 0 mm 1 mps 748 mmHg 50%
05:00 +21°C° 0 mm 1 mps 748 mmHg 51%
06:00 +21°C° 0 mm 1 mps 748 mmHg 51%
07:00 +23°C° 0 mm 1 mps 748 mmHg 46%
08:00 +25°C° 0 mm 2 mps 748 mmHg 41%
09:00 +27°C° 0 mm 2 mps 748 mmHg 36%
10:00 +28°C° 0 mm 2 mps 747 mmHg 33%
11:00 +29°C° 0 mm 3 mps 747 mmHg 30%
12:00 +30°C° 0 mm 3 mps 747 mmHg 28%
13:00 +30°C° 0 mm 4 mps 746 mmHg 29%
14:00 +30°C° 0 mm 4 mps 746 mmHg 31%
15:00 +29°C° 0 mm 5 mps 746 mmHg 32%
16:00 +29°C° 0 mm 5 mps 746 mmHg 36%
17:00 +28°C° 0 mm 5 mps 746 mmHg 39%
18:00 +27°C° 0 mm 5 mps 745 mmHg 43%
19:00 +26°C° 0 mm 4 mps 745 mmHg 45%
20:00 +25°C° 0 mm 3 mps 745 mmHg 48%
21:00 +24°C° 0 mm 2 mps 745 mmHg 50%
22:00 +23°C° 0 mm 2 mps 745 mmHg 52%
23:00 +22°C° 0 mm 3 mps 744 mmHg 54%
Show more